Regional Weather Roundup
Issued by NWS Huntsville, AL

Home | Current Version | Previous Version | Text Only | Print | Product List | Glossary On
Versions: 1 2 3 4 5 6 7 8 9 10 11 12 13 14 15 16 17 18 19 20 21 22 23 24 25 26 27
000
ASUS44 KHUN 230810
RWRHUN

WEATHER ROUNDUP FOR THE TENNESSEE VALLEY
NATIONAL WEATHER SERVICE HUNTSVILLE AL
200 AM CST THU NOV 23 2017

ALZ001>004-230900-
NORTHWEST ALABAMA

CITY           SKY/WX    TMP DP  RH WIND       PRES   REMARKS
COURTLAND HCN    N/A     28 N/A N/A CALM        N/A
RUSSELLVILLE     N/A     25 N/A N/A MISG        N/A
SHOALS AIRPORT CLEAR     32  24  72 CALM      30.16F
SHOALS TVA RES   N/A     34 N/A N/A MISG        N/A
$$

ALZ005>007-016-230900-
NORTH CENTRAL ALABAMA

CITY           SKY/WX    TMP DP  RH WIND       PRES   REMARKS
CULLMAN AG STN   N/A     34 N/A N/A NE5         N/A  WCI  30
DECATUR AP     CLEAR     32  26  78 CALM      30.15F
HUNTSVILLE AP  CLEAR     34  26  72 NE6       30.12F WCI  29
MERIDIANVILLE  CLEAR     30  27  86 CALM      30.14F
REDSTONE ARSN  CLEAR     33  25  74 E6        30.12F WCI  27
VINEMONT AP    FAIR      30  24  78 CALM      30.13F
$$

ALZ008>010-230900-
NORTHEAST ALABAMA

CITY           SKY/WX    TMP DP  RH WIND       PRES   REMARKS
ALBERTVILLE    CLEAR     32  32 100 CALM      30.10S
FORT PAYNE     CLEAR     28  27  93 CALM      30.10F
SCOTTSBORO AP  CLEAR     30  28  93 CALM      30.14S
SCOTTSBORO HCN   N/A     28 N/A N/A MISG        N/A
VALLEY HEAD      N/A     27 N/A N/A MISG        N/A
$$

TNZ076-096-097-230900-
SOUTHEASTERN MIDDLE TENNESSEE

CITY           SKY/WX    TMP DP  RH WIND       PRES   REMARKS
TULLAHOMA      CLEAR     32  23  69 NE3       30.12F
WINCHESTER     CLEAR     25  21  86 CALM      30.14S
$$

...SURROUNDING SITES...

CITY           SKY/WX    TMP DP  RH WIND       PRES   REMARKS
ATLANTA        CLOUDY    42  33  70 VRB6      30.07F
ANNISTON       CLEAR     39  28  64 NE6       30.11F WCI  35
BIRMINGHAM     CLEAR     35  27  72 CALM      30.13F
CHATTANOOGA    CLEAR     34  27  75 CALM      30.13F
CORINTH        FAIR      27  25  93 CALM      30.19R
DALTON         CLEAR     36  30  80 N5        30.13S WCI  32
GADSDEN        CLEAR     35  29  78 CALM      30.12F
GOLDEN TRNGL   CLEAR     30  26  85 W3        30.16F
HALEYVILLE     FAIR      31  26  82 N6        30.15S WCI  25
JACKSON TN     CLOUDY    25  23  92 CALM      30.20F
MEMPHIS        CLOUDY    33  24  69 CALM      30.19F
NASHVILLE      CLOUDY    32  24  72 N3        30.18F
OXFORD MS      FAIR      25  23  93 CALM      30.21S
ROME           CLEAR     34  29  82 CALM      30.11S
SAVANNAH       CLEAR     25  25 100 CALM      30.19R FOG
SELMER         CLEAR     30  23  74 N6        30.18S WCI  24
TUPELO         CLEAR     29  22  75 NW6       30.17F WCI  23
TUSCALOOSA     CLEAR     32  28  85 CALM      30.13F
$$

...GULF COAST WEATHER...

CITY           SKY/WX    TMP DP  RH WIND       PRES   REMARKS
GULFPORT       CLEAR     46  32  58 N12       30.08F
PASCAGOULA     CLEAR     45  31  58 N12       30.08F
MOBILE         CLEAR     44  31  60 N12       30.09S
GULF SHORES    CLOUDY    48  37  64 N10G16    30.05S
PENSACOLA      CLOUDY    51  36  56 N10G18    30.02F
DESTIN         CLOUDY    57  41  55 N14       30.01S
PANAMA CITY    DRIZZLE   58  48  71 N9        29.97F
APPALACHICOLA  LGT RAIN  56  56 100 NE9       29.95F
$$





USA.gov is the U.S. government's official web portal to all federal, state and local government web resources and services.